[[{"header":{"parameterUnit":"m.s-1","parameterCategory":1,"la1":30.2991,"la2":30.254,"lo1":-89.0895,"lo2":-89.0444,"dy":0.0017,"dx":0.0017,"nx":28,"ny":28,"refTime":"2024-05-28T03:00:00:Z","depth":0,"parameterNumber":2,"parameterNumberName":"U-component_of_WINDS"},"data":[0,0,0,0,0,0,0,0,0,0,0,0,0,0,0,0,0,0,0,0,0,0,0,0,0,0,0,0,0,0,0,0,0,0,0,0,0,0,0,0,0,0,0,0,0,0,0,0,0,0,0,0,0,0,0,0,0,0,1.854,1.8541,0,1.8616,1.8617,1.8618,1.8655,1.8655,1.8655,1.8655,1.8736,1.8738,1.874,0,0,0,0,0,0,0,0,0,0,0,0,0,1.8432,1.8433,1.854,1.8541,1.8542,1.8616,1.8617,1.8618,1.8655,1.8655,1.8655,1.8655,1.8735,1.8738,1.874,0,0,0,0,0,0,0,0,0,0,0,0,0,1.849,1.8434,1.8539,1.8569,1.8572,1.8616,1.8617,1.8618,1.8655,1.8655,1.8655,1.8655,1.8734,1.8737,1.8741,1.8761,0,0,1.8751,1.8752,0,0,0,0,0,0,0,0,1.8487,1.8494,1.8564,1.8567,1.8571,1.8626,1.8609,1.8666,1.8655,1.8624,1.8655,1.8655,1.8699,1.8706,1.872,1.8765,1.8769,1.8751,1.8753,1.8754,1.8755,0,0,0,0,0,0,0,1.8483,1.8491,1.857,1.8565,1.8569,1.858,1.8589,1.862,1.8661,1.8626,1.8629,1.8638,1.8701,1.8717,1.8722,1.877,1.8751,1.8754,1.8756,1.8757,1.8842,1.8842,0,0,0,0,0,0,1.8473,1.8488,1.8568,1.8572,1.8528,1.8582,1.8591,1.8608,1.8661,1.8669,1.8638,1.8639,1.8711,1.8718,1.8725,1.8756,1.8754,1.8757,1.8759,1.8841,1.8842,1.8842,0,0,0,0,0,0,1.8471,1.848,1.8565,1.8531,1.8542,1.8584,1.8603,1.861,1.8625,1.8669,1.8677,1.8645,1.8711,1.8721,1.8753,1.8759,1.8759,1.8762,1.8841,1.8841,1.8842,1.8815,0,0,0,0,0,0,1.8468,1.8479,1.8485,1.8531,1.8544,1.8589,1.8603,1.8611,1.863,1.8633,1.8678,1.8686,1.8712,1.8748,1.8756,1.8763,1.8764,1.8841,1.8841,1.8842,1.8816,1.8815,1.8814,0,0,0,0,0,1.8464,1.8474,1.8485,1.8495,1.8553,1.8589,1.8597,1.8626,1.8631,1.8639,1.8668,1.8685,1.8757,1.8751,1.8761,1.8769,1.884,1.8841,1.8842,1.8816,1.8815,1.8814,0,0,0,0,0,0,1.8428,1.8481,1.8493,1.8519,1.8549,1.8595,1.8606,1.8623,1.8653,1.8655,1.8691,1.8701,1.8731,1.8754,1.8745,1.8795,1.8801,1.8803,1.8778,1.8777,1.8776,1.877,1.8767,0,0,0,0,0,1.8424,1.8447,1.8492,1.8511,1.8525,1.8563,1.858,1.86,1.8634,1.8647,1.8678,1.8711,1.8742,1.8761,1.8791,1.882,1.8832,1.8831,1.883,1.8829,1.8831,1.8852,1.8853,1.8844,1.8844,1.8844,0,0,1.8414,1.8445,1.8458,1.8505,1.853,1.8556,1.8574,1.8599,1.862,1.8651,1.8684,1.8709,1.8748,1.878,1.8795,1.8799,1.8837,1.883,1.8829,1.8831,1.8853,1.8853,1.8854,1.8845,1.8845,1.8845,0,0,1.8409,1.8434,1.8454,1.848,1.852,1.8546,1.8551,1.8595,1.8613,1.8647,1.8672,1.8699,1.875,1.8778,1.8799,1.8811,1.8829,1.8821,1.8815,1.8835,1.8836,1.8836,1.8843,1.8845,1.8822,1.8822,1.8822,0,1.8391,1.843,1.8462,1.8487,1.8509,1.8539,1.8561,1.8586,1.8634,1.8649,1.8653,1.8721,1.875,1.879,1.8794,1.8809,1.8818,1.8814,1.8833,1.8834,1.8835,1.8842,1.8844,1.8821,1.8821,1.8821,1.8821,0,1.8408,1.8435,1.8447,1.8492,1.8515,1.8539,1.8577,1.8597,1.8617,1.8643,1.868,1.8716,1.8756,1.8768,1.8787,1.8813,1.8815,1.8825,1.8832,1.8834,1.8841,1.8844,1.8819,1.882,1.882,1.882,0,0,1.8379,1.8446,1.8449,1.8473,1.8521,1.8543,1.8571,1.861,1.8628,1.8661,1.8687,1.8732,1.8744,1.8768,1.8792,1.8809,1.882,1.8819,1.882,1.8819,1.8855,1.8846,1.8848,1.8833,1.8834,1.8834,1.8852,0,1.8382,1.8429,1.8461,1.8498,1.8525,1.8558,1.8582,1.8616,1.8643,1.8672,1.8703,1.8735,1.8747,1.8763,1.8782,1.8815,1.8828,1.8814,1.8859,1.886,1.8847,1.8852,1.8841,1.8856,1.8855,1.8855,1.8855,0,1.8389,1.8423,1.8462,1.8512,1.8524,1.8545,1.8586,1.8613,1.8654,1.8673,1.8703,1.8728,1.8761,1.8767,1.8816,1.8805,1.8827,1.8847,1.8848,1.8853,1.8857,1.8857,1.8861,1.8863,1.886,1.8859,1.8859,0,1.8366,1.8421,1.8453,1.8471,1.853,1.8544,1.857,1.8611,1.8634,1.8671,1.8687,1.8728,1.875,1.8783,1.882,1.882,1.8866,1.8874,1.8885,1.8884,1.8891,1.889,1.8899,1.8905,1.8905,1.8905,1.8905,0,1.8365,1.8388,1.8443,1.8462,1.8491,1.853,1.8558,1.8586,1.8624,1.8651,1.8683,1.8709,1.8756,1.8789,1.8818,1.8856,1.8865,1.8883,1.8891,1.888,1.8878,1.8894,1.8894,1.8905,1.8905,1.8905,1.8905,0,1.8342,1.838,1.8417,1.8471,1.8485,1.8504,1.8551,1.8573,1.8603,1.8638,1.8649,1.8698,1.8738,1.8779,1.8833,1.8854,1.8891,1.8901,1.8877,1.8881,1.889,1.8889,1.8909,1.8915,1.8916,1.8916,1.8916,0,1.8339,1.8357,1.8414,1.8435,1.8459,1.8492,1.8517,1.8558,1.8583,1.8634,1.8651,1.8694,1.873,1.8795,1.8836,1.888,1.8891,1.8896,1.8898,1.8888,1.8893,1.8891,1.8895,1.8894,1.8894,1.8894,1.8893,0,1.8329,1.8348,1.8381,1.8423,1.8452,1.8486,1.8522,1.8538,1.8587,1.8614,1.8656,1.8685,1.8743,1.8786,1.8835,1.8865,1.8888,1.8893,1.8898,1.8887,1.8873,1.8882,1.8874,1.8892,1.8892,1.8892,1.8892,1.8892,1.8316,1.8336,1.838,1.8418,1.845,1.8484,1.8508,1.8543,1.8578,1.8628,1.8651,1.8694,1.8741,1.881,1.8839,1.8876,1.8882,1.8888,1.889,1.8891,1.889,1.8868,1.8885,1.8885,1.8885,1.8885,1.8885,0,1.8309,1.834,1.8375,1.8425,1.8456,1.8476,1.8519,1.8544,1.8581,1.8622,1.8658,1.8709,1.8753,1.88,1.8848,1.8869,1.8881,1.888,1.8878,1.8886,1.8881,1.8872,1.8869,1.8869,1.8869,1.8869,1.8869,1.8869,1.8309,1.8344,1.8369,1.8422,1.8454,1.8496,1.8519,1.8553,1.8586,1.8641,1.8678,1.8708,1.8753,1.8805,1.8848,1.8861,1.8878,1.8874,1.889,1.8884,1.8885,1.8886,1.8878,1.8877,1.8877,1.8892,1.8892,1.8892]},{"header":{"parameterUnit":"m.s-1","parameterCategory":1,"la1":30.2991,"la2":30.254,"lo1":-89.0895,"lo2":-89.0444,"dy":0.0017,"dx":0.0017,"nx":28,"ny":28,"refTime":"2024-05-28T03:00:00:Z","depth":0,"parameterNumber":3,"parameterNumberName":"V-component_of_WINDS"},"data":[0,0,0,0,0,0,0,0,0,0,0,0,0,0,0,0,0,0,0,0,0,0,0,0,0,0,0,0,0,0,0,0,0,0,0,0,0,0,0,0,0,0,0,0,0,0,0,0,0,0,0,0,0,0,0,0,0,0,4.1554,4.1556,0,4.1715,4.1717,4.1718,4.1787,4.1786,4.1786,4.1786,4.1943,4.1947,4.1952,0,0,0,0,0,0,0,0,0,0,0,0,0,4.1299,4.1303,4.1554,4.1556,4.1558,4.1714,4.1717,4.1719,4.1787,4.1786,4.1786,4.1786,4.1941,4.1947,4.1952,0,0,0,0,0,0,0,0,0,0,0,0,0,4.1429,4.1304,4.1553,4.1611,4.1618,4.1714,4.1717,4.1719,4.1787,4.1786,4.1786,4.1786,4.194,4.1946,4.1953,4.2002,0,0,4.1973,4.1976,0,0,0,0,0,0,0,0,4.1422,4.1438,4.16,4.1607,4.1615,4.173,4.1684,4.1814,4.1787,4.1722,4.1786,4.1785,4.1872,4.1884,4.1915,4.2009,4.2016,4.1974,4.1978,4.1981,4.1982,0,0,0,0,0,0,0,4.1413,4.1432,4.1617,4.1602,4.1611,4.1626,4.1644,4.1709,4.1797,4.1728,4.1733,4.1752,4.1876,4.1908,4.1919,4.2018,4.1973,4.1979,4.1983,4.1986,4.2161,4.2162,0,0,0,0,0,0,4.1395,4.1424,4.1612,4.1622,4.1516,4.1631,4.1651,4.1693,4.1797,4.1812,4.1752,4.1754,4.1897,4.1911,4.1925,4.1991,4.198,4.1987,4.199,4.2161,4.2162,4.2162,0,0,0,0,0,0,4.1389,4.1411,4.1606,4.1525,4.1551,4.1636,4.1683,4.1697,4.173,4.1815,4.183,4.177,4.1898,4.1916,4.1983,4.1997,4.199,4.1996,4.216,4.2161,4.2162,4.2121,0,0,0,0,0,0,4.1382,4.1409,4.143,4.1525,4.1555,4.1663,4.1684,4.17,4.1742,4.1747,4.1836,4.185,4.1899,4.1973,4.199,4.2006,4.2001,4.2159,4.216,4.2162,4.2121,4.212,4.2119,0,0,0,0,0,4.1372,4.141,4.1431,4.1453,4.1583,4.1664,4.168,4.1738,4.1743,4.1764,4.1819,4.1847,4.1992,4.1979,4.1999,4.2017,4.2158,4.216,4.2162,4.2122,4.212,4.2119,0,0,0,0,0,0,4.1311,4.1423,4.1448,4.1517,4.1581,4.1675,4.1703,4.1734,4.1796,4.1797,4.1864,4.1883,4.1945,4.1987,4.1971,4.207,4.2078,4.2083,4.2041,4.204,4.2039,4.2028,4.2006,0,0,0,0,0,4.1307,4.1365,4.1458,4.1511,4.1542,4.1617,4.1654,4.1693,4.176,4.1787,4.1847,4.1909,4.1969,4.2006,4.2066,4.2127,4.2148,4.215,4.2149,4.2147,4.2152,4.2188,4.219,4.2167,4.2167,4.2167,0,0,4.1296,4.1364,4.1397,4.15,4.1554,4.1611,4.1639,4.1698,4.174,4.1795,4.1864,4.1909,4.1983,4.2048,4.2079,4.2085,4.2162,4.2149,4.2148,4.2153,4.219,4.2192,4.2194,4.2168,4.2168,4.2168,0,0,4.1307,4.1365,4.1416,4.147,4.1552,4.1602,4.1614,4.1704,4.1737,4.1808,4.185,4.19,4.2002,4.2053,4.2092,4.2124,4.2152,4.2141,4.2136,4.2171,4.2173,4.2175,4.2187,4.219,4.2144,4.2144,4.2144,0,4.1283,4.1374,4.1437,4.1495,4.1539,4.1593,4.1645,4.1693,4.1789,4.1817,4.1823,4.1953,4.2006,4.2084,4.2092,4.2122,4.2137,4.2131,4.2168,4.217,4.2173,4.2185,4.2189,4.2142,4.2143,4.2143,4.2143,0,4.1341,4.1402,4.1433,4.1528,4.1576,4.1629,4.1699,4.1739,4.1773,4.1822,4.1893,4.1959,4.2034,4.2055,4.2088,4.2138,4.2139,4.2155,4.2164,4.2172,4.2185,4.219,4.214,4.2141,4.2141,4.2142,0,0,4.1318,4.1449,4.1459,4.1503,4.1598,4.1646,4.1702,4.1778,4.1811,4.1875,4.1923,4.2008,4.2025,4.2069,4.2108,4.2139,4.2161,4.2151,4.2154,4.2152,4.2221,4.2209,4.2213,4.218,4.2181,4.2182,4.2215,0,4.1342,4.1448,4.1507,4.1587,4.1645,4.1698,4.1746,4.1809,4.1856,4.191,4.196,4.2021,4.2037,4.2064,4.2097,4.2151,4.2175,4.2149,4.2224,4.2226,4.2206,4.222,4.2208,4.2236,4.222,4.2221,4.2222,0,4.1385,4.1452,4.1539,4.1629,4.1656,4.1699,4.1774,4.1825,4.1896,4.1928,4.1979,4.2019,4.2078,4.2081,4.2164,4.2145,4.2179,4.221,4.2212,4.2222,4.2225,4.2231,4.2246,4.2251,4.223,4.2229,4.2229,0,4.1361,4.1473,4.154,4.1576,4.1682,4.1711,4.1756,4.1827,4.187,4.1934,4.1962,4.2031,4.2069,4.2121,4.2177,4.2175,4.2254,4.2262,4.2282,4.228,4.2297,4.2295,4.2318,4.2316,4.2316,4.2316,4.2316,0,4.1384,4.1435,4.1531,4.1572,4.1631,4.1697,4.1752,4.1801,4.1864,4.1915,4.1963,4.2009,4.2081,4.2135,4.2179,4.2241,4.2257,4.2284,4.2295,4.228,4.2277,4.2304,4.2304,4.2317,4.2317,4.2317,4.2317,0,4.1367,4.1433,4.151,4.1605,4.163,4.1669,4.175,4.1791,4.1841,4.1904,4.1922,4.1999,4.2066,4.2128,4.2215,4.2245,4.2308,4.2321,4.2285,4.2291,4.2308,4.2306,4.235,4.2359,4.2349,4.2349,4.2349,0,4.1377,4.1419,4.1519,4.1558,4.1603,4.1664,4.1708,4.1774,4.1818,4.1903,4.1934,4.2004,4.2065,4.2168,4.223,4.2298,4.2314,4.2325,4.2324,4.2309,4.2316,4.2313,4.2318,4.2324,4.2324,4.2324,4.2324,0,4.1389,4.142,4.1484,4.1559,4.1611,4.1673,4.1736,4.1764,4.1841,4.1887,4.1958,4.2005,4.2096,4.2165,4.224,4.2284,4.2316,4.2323,4.2332,4.2318,4.2295,4.2309,4.2283,4.2322,4.2322,4.2322,4.2322,4.2322,4.1387,4.1427,4.1505,4.1574,4.1629,4.1687,4.1731,4.1787,4.1848,4.1929,4.1963,4.2035,4.2105,4.221,4.2253,4.2309,4.2316,4.2327,4.2331,4.2333,4.2331,4.2285,4.2322,4.2322,4.2322,4.2323,4.2323,0,4.1403,4.1456,4.1519,4.1607,4.1661,4.169,4.1761,4.1804,4.1867,4.1931,4.199,4.2071,4.2139,4.2207,4.2278,4.231,4.2326,4.2326,4.2325,4.2335,4.232,4.2306,4.2312,4.2312,4.2312,4.2311,4.2311,4.2311,4.1417,4.1487,4.1527,4.1624,4.1676,4.1748,4.1787,4.184,4.1892,4.1981,4.2039,4.2084,4.215,4.2227,4.229,4.2308,4.2332,4.2328,4.2351,4.2335,4.2336,4.2336,4.2324,4.2333,4.2333,4.2362,4.2362,4.2362]}]]